Flag for Iran Weather past 2 weeks in Mashhad, Iran

Now
84 °F

Clear.


Feels Like: 82 °F
Forecast: 78 / 96 °F
Wind: 5 mph from Northwest

Location: Mashhad Airport

Current Time: Jul 5, 2015 at 1:21:02 AM

Latest Report: Jul 5, 2015 at 12:30 AM


Visibility: 10 mi

Pressure: 30.01 "Hg (26.86 "Hg at 981m altitude)

Humidity: 23%

Dew point: 43 °F

Location of MashhadLocation

Historic Weather in Mashhad — Graph

°F

Mashhad temperature yesterday

Maximum temperature yesterday: 104 °F (at 2:00 PM)
Minimum temperature yesterday: 77 °F (at 5:30 AM)
Average temperature yesterday: 91 °F

Past Weeks' High & Low Weather Summary

 TemperatureHumidityPressure
High104 °F (Jun 29, 3:00 PM)39% (Jun 30, 5:30 AM)30.04 "Hg (Jun 30, 5:30 AM)
Low64 °F (Jun 26, 5:30 AM)4% (Jun 25, 3:30 PM)29.62 "Hg (Jun 26, 5:30 PM)
Average88 °F16%29.85 "Hg
* Reported Jun 19 11:30 PM — Midnight between Jul 4 and Jul 5, Mashhad, Weather by CustomWeather, © 2015

Note: Actual official high and low records may vary slightly from our data, if they occured in-between our weather recording intervals... More about our weather records

Advertising

Mashhad weather history for previous 24 hours

 ConditionsComfort  
Time TempWeatherWind HumidityBarometerVisibility
12:00 AM
Sun, Jul 5
86 °FClear.No wind20%30.01 "Hg10 mi
11:30 PM
Sat, Jul 4
88 °FClear.5 mph18%29.98 "Hg10 mi
11:00 PM90 °FClear.12 mph16%29.98 "Hg10 mi
10:30 PM91 °FClear.14 mph14%29.98 "Hg10 mi
9:55 PM90 °FClear.12 mph15%29.98 "Hg10 mi
9:30 PM90 °FClear.7 mph16%29.95 "Hg10 mi
9:00 PM90 °FSunny.14 mph16%29.95 "Hg10 mi
8:30 PM91 °FSunny.12 mph14%29.95 "Hg10 mi
8:00 PM93 °FSunny.14 mph13%29.92 "Hg10 mi
7:30 PM95 °FSunny.14 mph12%29.92 "Hg10 mi
7:00 PM95 °FSunny.18 mph12%29.92 "Hg10 mi
6:30 PM97 °FSunny.16 mph12%29.92 "Hg10 mi
6:00 PM99 °FSunny.16 mph10%29.89 "Hg10 mi
5:30 PM100 °FSunny.16 mph10%29.89 "Hg10 mi
5:00 PM100 °FSunny.16 mph9%29.89 "Hg10 mi
4:30 PM102 °FSunny.18 mph9%29.89 "Hg10 mi
4:00 PM102 °FSunny.18 mph9%29.89 "Hg10 mi
3:30 PM102 °FSunny.18 mph8%29.89 "Hg10 mi
3:00 PM102 °FSunny.21 mph8%29.89 "Hg10 mi
2:30 PM104 °FSunny.18 mph7%29.89 "Hg10 mi
2:00 PM104 °FSunny.12 mph8%29.89 "Hg10 mi
1:30 PM102 °FSunny.12 mph9%29.92 "Hg10 mi
1:00 PM100 °FSunny.9 mph10%29.95 "Hg10 mi
12:30 PM99 °FSunny.12 mph11%29.95 "Hg10 mi
12:00 PM99 °FSunny.14 mph11%29.95 "Hg10 mi
11:30 AM97 °FSunny.7 mph12%29.95 "Hg10 mi
10:50 AM95 °FSunny.7 mph13%29.95 "Hg10 mi
10:30 AM95 °FSunny.12 mph12%29.95 "Hg10 mi
10:00 AM93 °FSunny.7 mph13%29.95 "Hg10 mi
9:30 AM91 °FSunny.7 mph14%29.95 "Hg10 mi
9:00 AM91 °FSunny.No wind14%29.95 "Hg10 mi
8:30 AM90 °FSunny.5 mph15%29.98 "Hg10 mi
8:00 AM91 °FSunny.9 mph16%29.98 "Hg10 mi
7:30 AM86 °FSunny.5 mph22%29.98 "Hg10 mi
7:00 AM84 °FSunny.7 mph22%29.98 "Hg10 mi
6:30 AM81 °FClear.5 mph24%29.98 "Hg10 mi
5:50 AM79 °FClear.9 mph26%29.95 "Hg10 mi
5:30 AM77 °FClear.7 mph28%29.95 "Hg10 mi
4:50 AM79 °FClear.7 mph26%29.95 "Hg10 mi
4:30 AM79 °FClear.5 mph26%29.95 "Hg10 mi
3:50 AM79 °FClear.5 mph28%29.95 "Hg10 mi
3:30 AM81 °FClear.5 mph24%29.95 "Hg10 mi
3:00 AM81 °FClear.7 mph24%29.95 "Hg10 mi
2:30 AM82 °FClear.5 mph23%29.95 "Hg10 mi
2:00 AM82 °FClear.7 mph21%29.95 "Hg10 mi
1:30 AM84 °FClear.7 mph22%29.95 "Hg10 mi
1:00 AM84 °FClear.7 mph23%29.95 "Hg10 mi
Weather by CustomWeather, © 2015

See weather overviewHow to use our weather pages